Weather History for LEST - December, 2012

Change the Weather History Date:

Sunday, December 23, 2012

  Actual Average Record
Temperature  
Mean Temperature 54 °F -  
Max Temperature 59 °F 50 °F 62 °F (2008)
Min Temperature 50 °F 38 °F 23 °F (2005)
Degree Days  
Heating Degree Days 10    
Growing Degree Days 4 (Base 50)    
Moisture  
Dew Point 49 °F    
Average Humidity 83    
Maximum Humidity 94    
Minimum Humidity 72    
Precipitation  
Precipitation 0.00 in - - ()
Sea Level Pressure  
Sea Level Pressure 30.05 in    
Wind  
Wind Speed 13 mph ()    
Max Wind Speed 21 mph    
Max Gust Speed 33 mph    
Visibility 6.2 miles    
Events      
Averages and records for this station are not official NWS values.
T = Trace of Precipitation, MM = Missing Value Source: Averaged Metar Reports

Daily Weather History Graph

Daily Weather History Graph

Search for Another Location

Airport or City:

Trip Planner

Search our weather history database for the weather conditions in past years. The results will help you decide how hot, cold, wet, or windy it might be!

Date:

Astronomy

Dec. 23, 2012 Rise Set
Actual Time 9:02 AM CET 6:03 PM CET
Civil Twilight 8:30 AM CET 6:35 PM CET
Nautical Twilight 7:54 AM CET 7:11 PM CET
Astronomical Twilight 7:19 AM CET 7:46 PM CET
Moon 2:49 PM CET (12/23) 4:28 AM CET (12/23)
Length of Visible Light 10h 05m
Length of Day
9h 01m
Waxing Gibbous, 79% of the Moon is Illuminated
Dec 23
Waxing Gibbous
Dec 28
Full
Jan 5
Last Quarter
Jan 11
New
Jan 19
First Quarter

Hourly Weather History & Observations

Time (CET) Temp. Dew Point Humidity Pressure Visibility Wind Dir Wind Speed Gust Speed Precip Events Conditions
12:00 AM 55.4 °F 50.0 °F 82% 30.15 in 6.2 mi South 12.7 mph - N/A   Mostly Cloudy
12:30 AM 55.4 °F 50.0 °F 82% 30.15 in 6.2 mi SSW 12.7 mph - N/A   Mostly Cloudy
1:00 AM 55.4 °F 50.0 °F 82% 30.15 in 6.2 mi SSW 15.0 mph 26.5 mph N/A   Mostly Cloudy
1:30 AM 55.4 °F 50.0 °F 82% 30.15 in 6.2 mi South 16.1 mph 28.8 mph N/A   Mostly Cloudy
2:00 AM 55.4 °F 50.0 °F 82% 30.15 in 6.2 mi South 16.1 mph 27.6 mph N/A   Mostly Cloudy
2:30 AM 55.4 °F 50.0 °F 82% 30.12 in 6.2 mi South 16.1 mph - N/A   Mostly Cloudy
3:00 AM 55.4 °F 48.2 °F 77% 30.12 in 6.2 mi SSW 15.0 mph 32.2 mph N/A   Mostly Cloudy
3:30 AM 55.4 °F 48.2 °F 77% 30.12 in 6.2 mi SSW 16.1 mph 27.6 mph N/A   Mostly Cloudy
4:00 AM 53.6 °F 48.2 °F 82% 30.12 in 6.2 mi South 15.0 mph 27.6 mph N/A   Mostly Cloudy
4:30 AM 53.6 °F 48.2 °F 82% 30.12 in 6.2 mi South 20.7 mph 33.4 mph N/A   Mostly Cloudy
5:00 AM 53.6 °F 48.2 °F 82% 30.09 in 6.2 mi South 17.3 mph - N/A   Mostly Cloudy
5:30 AM 53.6 °F 48.2 °F 82% 30.09 in 6.2 mi South 13.8 mph - N/A   Mostly Cloudy
6:00 AM 53.6 °F 48.2 °F 82% 30.09 in 6.2 mi South 17.3 mph 29.9 mph N/A   Mostly Cloudy
6:30 AM 53.6 °F 48.2 °F 82% 30.09 in 6.2 mi South 16.1 mph 27.6 mph N/A   Mostly Cloudy
7:00 AM 51.8 °F 46.4 °F 82% 30.09 in 6.2 mi South 13.8 mph - N/A   Mostly Cloudy
8:00 AM 51.8 °F 46.4 °F 82% 30.09 in 6.2 mi South 15.0 mph - N/A   Scattered Clouds
8:30 AM 51.8 °F 46.4 °F 82% 30.09 in 6.2 mi South 18.4 mph - N/A   Scattered Clouds
9:00 AM 51.8 °F 46.4 °F 82% 30.09 in 6.2 mi SSW 15.0 mph 27.6 mph N/A   Partly Cloudy
9:30 AM 51.8 °F 46.4 °F 82% 30.06 in 6.2 mi South 15.0 mph - N/A   Partly Cloudy
10:00 AM 51.8 °F 46.4 °F 82% 30.06 in 6.2 mi South 17.3 mph 28.8 mph N/A   Partly Cloudy
10:30 AM 53.6 °F 46.4 °F 77% 30.09 in 6.2 mi South 13.8 mph - N/A   Partly Cloudy
11:00 AM 53.6 °F 48.2 °F 82% 30.09 in 6.2 mi SSW 16.1 mph - N/A   Partly Cloudy
11:30 AM 53.6 °F 48.2 °F 82% 30.09 in 6.2 mi SSW 17.3 mph - N/A   Partly Cloudy
12:00 PM 55.4 °F 48.2 °F 77% 30.09 in 6.2 mi South 16.1 mph - N/A   Partly Cloudy
12:30 PM 55.4 °F 48.2 °F 77% 30.09 in 6.2 mi SSW 15.0 mph - N/A   Partly Cloudy
1:00 PM 57.2 °F 50.0 °F 77% 30.06 in 6.2 mi South 16.1 mph - N/A   Partly Cloudy
1:30 PM 57.2 °F 50.0 °F 77% 30.04 in 6.2 mi South 16.1 mph - N/A   Partly Cloudy
2:00 PM 57.2 °F 48.2 °F 72% 30.04 in 6.2 mi South 19.6 mph - N/A   Partly Cloudy
2:30 PM 59.0 °F 50.0 °F 72% 30.01 in 6.2 mi South 12.7 mph - N/A   Partly Cloudy
3:00 PM 59.0 °F 50.0 °F 72% 30.01 in 6.2 mi SSW 13.8 mph 25.3 mph N/A   Partly Cloudy
3:30 PM 59.0 °F 50.0 °F 72% 30.01 in 6.2 mi SSW 12.7 mph - N/A   Partly Cloudy
4:00 PM 59.0 °F 50.0 °F 72% 30.01 in 6.2 mi SW 8.1 mph - N/A   Partly Cloudy
4:30 PM 57.2 °F 50.0 °F 77% 30.01 in 6.2 mi SSW 9.2 mph - N/A   Partly Cloudy
5:00 PM 57.2 °F 50.0 °F 77% 29.98 in 6.2 mi SSW 9.2 mph - N/A   Partly Cloudy
5:30 PM 55.4 °F 50.0 °F 82% 29.98 in 6.2 mi SW 9.2 mph - N/A   Partly Cloudy
6:00 PM 53.6 °F 50.0 °F 88% 29.98 in 6.2 mi WSW 5.8 mph - N/A   Partly Cloudy
6:30 PM 51.8 °F 50.0 °F 94% 29.98 in 6.2 mi SW 5.8 mph - N/A   Mostly Cloudy
7:00 PM 51.8 °F 50.0 °F 94% 29.98 in 6.2 mi SW 6.9 mph - N/A   Mostly Cloudy
7:30 PM 51.8 °F 50.0 °F 94% 29.98 in 6.2 mi SW 8.1 mph 19.6 mph N/A   Mostly Cloudy
8:00 PM 51.8 °F 50.0 °F 94% 29.98 in 6.2 mi SW 11.5 mph - N/A   Mostly Cloudy
8:30 PM 51.8 °F 50.0 °F 94% 29.98 in 6.2 mi SSW 12.7 mph - N/A   Mostly Cloudy
9:00 PM 51.8 °F 50.0 °F 94% 29.98 in 6.2 mi SSW 11.5 mph - N/A   Mostly Cloudy
9:30 PM 50.0 °F 48.2 °F 94% 29.98 in 6.2 mi SSE 8.1 mph - N/A   Mostly Cloudy
10:00 PM 51.8 °F 50.0 °F 94% 29.95 in 6.2 mi South 9.2 mph - N/A   Mostly Cloudy
10:30 PM 51.8 °F 50.0 °F 94% 29.95 in 6.2 mi South 12.7 mph - N/A   Mostly Cloudy
11:00 PM 51.8 °F 48.2 °F 88% 29.95 in 6.2 mi South 11.5 mph - N/A   Mostly Cloudy
11:30 PM 51.8 °F 48.2 °F 88% 29.92 in 6.2 mi South 13.8 mph - N/A   Mostly Cloudy